Year,Month,Day,Hour,Minute,Value (Times are PST for windspeed in km/hr)
2008,10,06,00,00,1.50
2008,10,06,00,01,2.80
2008,10,06,00,02,1.60
2008,10,06,00,03,2.90
2008,10,06,00,04,4.20
2008,10,06,00,05,2.60
2008,10,06,00,06,4.20
2008,10,06,00,07,4.60
2008,10,06,00,08,2.40
2008,10,06,00,09,2.80
2008,10,06,00,10,2.10
2008,10,06,00,11,1.30
2008,10,06,00,12,1.80
2008,10,06,00,13,2.10
2008,10,06,00,14,3.00
2008,10,06,00,15,4.10
2008,10,06,00,16,3.40
2008,10,06,00,17,2.90
2008,10,06,00,18,2.30
2008,10,06,00,19,3.70
2008,10,06,00,20,2.90
2008,10,06,00,21,2.90
2008,10,06,00,22,2.60
2008,10,06,00,23,2.50
2008,10,06,00,24,4.00
2008,10,06,00,25,3.10
2008,10,06,00,26,4.40
2008,10,06,00,27,3.10
2008,10,06,00,28,2.60
2008,10,06,00,29,1.30
2008,10,06,00,30,1.10
2008,10,06,00,31,1.50
2008,10,06,00,32,1.80
2008,10,06,00,33,4.10
2008,10,06,00,34,2.00
2008,10,06,00,35,1.70
2008,10,06,00,36,3.50
2008,10,06,00,37,5.00
2008,10,06,00,38,4.30
2008,10,06,00,39,2.80
2008,10,06,00,40,4.00
2008,10,06,00,41,5.20
2008,10,06,00,42,5.50
2008,10,06,00,43,4.60
2008,10,06,00,44,5.00
2008,10,06,00,45,5.30
2008,10,06,00,46,5.80
2008,10,06,00,47,6.50
2008,10,06,00,48,5.20
2008,10,06,00,49,4.30
2008,10,06,00,50,3.50
2008,10,06,00,51,3.70
2008,10,06,00,52,5.20
2008,10,06,00,53,4.40
2008,10,06,00,54,5.20
2008,10,06,00,55,4.60
2008,10,06,00,56,3.60
2008,10,06,00,57,5.10
2008,10,06,00,58,2.80
2008,10,06,00,59,2.00
2008,10,06,01,00,1.90
2008,10,06,01,01,2.50
2008,10,06,01,02,2.70
2008,10,06,01,03,1.60
2008,10,06,01,04,3.10
2008,10,06,01,05,1.80
2008,10,06,01,06,1.20
2008,10,06,01,07,1.80
2008,10,06,01,08,0.20
2008,10,06,01,09,0.40
2008,10,06,01,10,0.60
2008,10,06,01,11,1.30
2008,10,06,01,12,2.20
2008,10,06,01,13,0.50
2008,10,06,01,14,1.60
2008,10,06,01,15,0.90
2008,10,06,01,16,2.20
2008,10,06,01,17,3.00
2008,10,06,01,18,0.90
2008,10,06,01,19,1.80
2008,10,06,01,20,2.10
2008,10,06,01,21,2.50
2008,10,06,01,22,4.30
2008,10,06,01,23,1.90
2008,10,06,01,24,2.70
2008,10,06,01,25,1.40
2008,10,06,01,26,3.00
2008,10,06,01,27,3.90
2008,10,06,01,28,2.90
2008,10,06,01,29,4.10
2008,10,06,01,30,4.50
2008,10,06,01,31,5.20
2008,10,06,01,32,5.80
2008,10,06,01,33,6.00
2008,10,06,01,34,4.40
2008,10,06,01,35,4.30
2008,10,06,01,36,3.80
2008,10,06,01,37,4.10
2008,10,06,01,38,4.30
2008,10,06,01,39,2.80
2008,10,06,01,40,1.60
2008,10,06,01,41,4.20
2008,10,06,01,42,3.60
2008,10,06,01,43,2.50
2008,10,06,01,44,1.90
2008,10,06,01,45,3.30
2008,10,06,01,46,3.10
2008,10,06,01,47,4.30
2008,10,06,01,48,2.50
2008,10,06,01,49,2.00
2008,10,06,01,50,1.40
2008,10,06,01,51,2.30
2008,10,06,01,52,0.70
2008,10,06,01,53,2.80
2008,10,06,01,54,0.90
2008,10,06,01,55,0.30
2008,10,06,01,56,2.00
2008,10,06,01,57,3.40
2008,10,06,01,58,1.20
2008,10,06,01,59,1.10
2008,10,06,02,00,3.00
2008,10,06,02,01,1.90
2008,10,06,02,02,0.90
2008,10,06,02,03,1.40
2008,10,06,02,04,2.30
2008,10,06,02,05,2.10
2008,10,06,02,06,0.20
2008,10,06,02,07,1.10
2008,10,06,02,08,1.50
2008,10,06,02,09,3.90
2008,10,06,02,10,1.70
2008,10,06,02,11,0.20
2008,10,06,02,12,0.60
2008,10,06,02,13,2.50
2008,10,06,02,14,3.80
2008,10,06,02,15,2.40
2008,10,06,02,16,2.10
2008,10,06,02,17,1.00
2008,10,06,02,18,0.40
2008,10,06,02,19,0.80
2008,10,06,02,20,0.20
2008,10,06,02,21,2.70
2008,10,06,02,22,2.50
2008,10,06,02,23,3.40
2008,10,06,02,24,1.60
2008,10,06,02,25,1.50
2008,10,06,02,26,3.10
2008,10,06,02,27,2.80
2008,10,06,02,28,4.20
2008,10,06,02,29,4.90
2008,10,06,02,30,1.80
2008,10,06,02,31,2.50
2008,10,06,02,32,3.60
2008,10,06,02,33,3.70
2008,10,06,02,34,5.00
2008,10,06,02,35,3.70
2008,10,06,02,36,3.70
2008,10,06,02,37,3.30
2008,10,06,02,38,7.10
2008,10,06,02,39,5.60
2008,10,06,02,40,4.60
2008,10,06,02,41,3.90
2008,10,06,02,42,3.80
2008,10,06,02,43,5.40
2008,10,06,02,44,5.50
2008,10,06,02,45,2.90
2008,10,06,02,46,3.40
2008,10,06,02,47,5.40
2008,10,06,02,48,6.00
2008,10,06,02,49,2.50
2008,10,06,02,50,1.70
2008,10,06,02,51,0.50
2008,10,06,02,52,3.10
2008,10,06,02,53,3.40
2008,10,06,02,54,0.80
2008,10,06,02,55,0.40
2008,10,06,02,56,1.10
2008,10,06,02,57,0.40
2008,10,06,02,58,0.20
2008,10,06,02,59,0.50
2008,10,06,03,00,0.00
2008,10,06,03,01,0.10
2008,10,06,03,02,0.50
2008,10,06,03,03,0.10
2008,10,06,03,04,0.00
2008,10,06,03,05,0.20
2008,10,06,03,06,0.30
2008,10,06,03,07,0.00
2008,10,06,03,08,0.00
2008,10,06,03,09,0.70
2008,10,06,03,10,0.60
2008,10,06,03,11,2.60
2008,10,06,03,12,1.80
2008,10,06,03,13,3.80
2008,10,06,03,14,4.00
2008,10,06,03,15,4.70
2008,10,06,03,16,2.90
2008,10,06,03,17,2.50
2008,10,06,03,18,3.60
2008,10,06,03,19,4.80
2008,10,06,03,20,4.30
2008,10,06,03,21,2.90
2008,10,06,03,22,4.80
2008,10,06,03,23,3.30
2008,10,06,03,24,3.10
2008,10,06,03,25,2.70
2008,10,06,03,26,4.70
2008,10,06,03,27,2.90
2008,10,06,03,28,5.80
2008,10,06,03,29,4.30
2008,10,06,03,30,2.90
2008,10,06,03,31,2.10
2008,10,06,03,32,4.00
2008,10,06,03,33,6.20
2008,10,06,03,34,4.80
2008,10,06,03,35,5.30
2008,10,06,03,36,4.00
2008,10,06,03,37,3.10
2008,10,06,03,38,2.90
2008,10,06,03,39,3.50
2008,10,06,03,40,1.00
2008,10,06,03,41,2.40
2008,10,06,03,42,5.80
2008,10,06,03,43,4.00
2008,10,06,03,44,5.00
2008,10,06,03,45,4.00
2008,10,06,03,46,4.70
2008,10,06,03,47,3.30
2008,10,06,03,48,2.50
2008,10,06,03,49,3.80
2008,10,06,03,50,1.20
2008,10,06,03,51,2.10
2008,10,06,03,52,1.80
2008,10,06,03,53,2.40
2008,10,06,03,54,2.10
2008,10,06,03,55,1.60
2008,10,06,03,56,3.50
2008,10,06,03,57,2.90
2008,10,06,03,58,4.80
2008,10,06,03,59,2.60
2008,10,06,04,00,3.90
2008,10,06,04,01,2.70
2008,10,06,04,02,2.80
2008,10,06,04,03,2.80
2008,10,06,04,04,4.70
2008,10,06,04,05,2.50
2008,10,06,04,06,3.90
2008,10,06,04,07,2.40
2008,10,06,04,08,1.10
2008,10,06,04,09,2.00
2008,10,06,04,10,0.30
2008,10,06,04,11,0.70
2008,10,06,04,12,0.40
2008,10,06,04,13,0.50
2008,10,06,04,14,1.10
2008,10,06,04,15,0.60
2008,10,06,04,16,0.10
2008,10,06,04,17,0.00
2008,10,06,04,18,0.50
2008,10,06,04,19,0.40
2008,10,06,04,20,0.20
2008,10,06,04,21,0.30
2008,10,06,04,22,0.10
2008,10,06,04,23,0.20
2008,10,06,04,24,0.00
2008,10,06,04,25,0.00
2008,10,06,04,26,0.00
2008,10,06,04,27,0.00
2008,10,06,04,28,0.00
2008,10,06,04,29,0.00
2008,10,06,04,30,0.10
2008,10,06,04,31,0.00
2008,10,06,04,32,0.70
2008,10,06,04,33,0.10
2008,10,06,04,34,0.00
2008,10,06,04,35,0.90
2008,10,06,04,36,0.60
2008,10,06,04,37,1.50
2008,10,06,04,38,1.30
2008,10,06,04,39,0.40
2008,10,06,04,40,1.30
2008,10,06,04,41,0.90
2008,10,06,04,42,1.80
2008,10,06,04,43,1.50
2008,10,06,04,44,1.60
2008,10,06,04,45,0.60
2008,10,06,04,46,0.20
2008,10,06,04,47,0.10
2008,10,06,04,48,0.00
2008,10,06,04,49,0.00
2008,10,06,04,50,0.00
2008,10,06,04,51,0.00
2008,10,06,04,52,0.00
2008,10,06,04,53,0.00
2008,10,06,04,54,0.00
2008,10,06,04,55,0.00
2008,10,06,04,56,0.00
2008,10,06,04,57,0.00
2008,10,06,04,58,0.00
2008,10,06,04,59,0.00
2008,10,06,05,00,0.00
2008,10,06,05,01,0.00
2008,10,06,05,02,0.00
2008,10,06,05,03,0.00
2008,10,06,05,04,0.00
2008,10,06,05,05,0.00
2008,10,06,05,06,0.60
2008,10,06,05,07,0.20
2008,10,06,05,08,0.10
2008,10,06,05,09,0.10
2008,10,06,05,10,0.80
2008,10,06,05,11,1.90
2008,10,06,05,12,1.10
2008,10,06,05,13,2.40
2008,10,06,05,14,0.20
2008,10,06,05,15,0.00
2008,10,06,05,16,0.00
2008,10,06,05,17,0.50
2008,10,06,05,18,0.00
2008,10,06,05,19,0.00
2008,10,06,05,20,0.00
2008,10,06,05,21,0.10
2008,10,06,05,22,0.00
2008,10,06,05,23,0.00
2008,10,06,05,24,0.00
2008,10,06,05,25,0.00
2008,10,06,05,26,0.10
2008,10,06,05,27,0.00
2008,10,06,05,28,0.00
2008,10,06,05,29,1.30
2008,10,06,05,30,4.60
2008,10,06,05,31,3.90
2008,10,06,05,32,4.40
2008,10,06,05,33,4.20
2008,10,06,05,34,4.00
2008,10,06,05,35,4.10
2008,10,06,05,36,5.40
2008,10,06,05,37,7.80
2008,10,06,05,38,5.00
2008,10,06,05,39,4.40
2008,10,06,05,40,4.50
2008,10,06,05,41,4.60
2008,10,06,05,42,3.00
2008,10,06,05,43,1.10
2008,10,06,05,44,4.30
2008,10,06,05,45,5.60
2008,10,06,05,46,6.30
2008,10,06,05,47,6.10
2008,10,06,05,48,5.50
2008,10,06,05,49,5.70
2008,10,06,05,50,5.10
2008,10,06,05,51,2.30
2008,10,06,05,52,6.30
2008,10,06,05,53,5.50
2008,10,06,05,54,4.50
2008,10,06,05,55,2.70
2008,10,06,05,56,2.70
2008,10,06,05,57,4.20
2008,10,06,05,58,3.40
2008,10,06,05,59,4.80
2008,10,06,06,00,4.80
2008,10,06,06,01,4.70
2008,10,06,06,02,7.70
2008,10,06,06,03,4.20
2008,10,06,06,04,4.40
2008,10,06,06,05,7.30
2008,10,06,06,06,3.60
2008,10,06,06,07,5.20
2008,10,06,06,08,4.60
2008,10,06,06,09,7.50
2008,10,06,06,10,6.20
2008,10,06,06,11,7.30
2008,10,06,06,12,6.80
2008,10,06,06,13,6.70
2008,10,06,06,14,7.00
2008,10,06,06,15,5.10
2008,10,06,06,16,6.40
2008,10,06,06,17,9.30
2008,10,06,06,18,5.00
2008,10,06,06,19,6.80
2008,10,06,06,20,8.10
2008,10,06,06,21,8.60
2008,10,06,06,22,5.60
2008,10,06,06,23,8.40
2008,10,06,06,24,9.70
2008,10,06,06,25,12.70
2008,10,06,06,26,8.30
2008,10,06,06,27,7.20
2008,10,06,06,28,7.80
2008,10,06,06,29,7.50
2008,10,06,06,30,10.90
2008,10,06,06,31,7.10
2008,10,06,06,32,7.30
2008,10,06,06,33,7.50
2008,10,06,06,34,7.60
2008,10,06,06,35,6.10
2008,10,06,06,36,5.60
2008,10,06,06,37,6.00
2008,10,06,06,38,7.60
2008,10,06,06,39,6.90
2008,10,06,06,40,4.40
2008,10,06,06,41,8.60
2008,10,06,06,42,6.30
2008,10,06,06,43,5.40
2008,10,06,06,44,5.50
2008,10,06,06,45,6.60
2008,10,06,06,46,7.80
2008,10,06,06,47,6.50
2008,10,06,06,48,6.60
2008,10,06,06,49,7.70
2008,10,06,06,50,3.50
2008,10,06,06,51,5.10
2008,10,06,06,52,8.30
2008,10,06,06,53,9.70
2008,10,06,06,54,8.80
2008,10,06,06,55,5.80
2008,10,06,06,56,5.60
2008,10,06,06,57,7.60
2008,10,06,06,58,4.90
2008,10,06,06,59,5.10
2008,10,06,07,00,4.30
2008,10,06,07,01,8.50
2008,10,06,07,02,6.00
2008,10,06,07,03,5.60
2008,10,06,07,04,5.10
2008,10,06,07,05,6.30
2008,10,06,07,06,6.20
2008,10,06,07,07,6.10
2008,10,06,07,08,6.90
2008,10,06,07,09,3.80
2008,10,06,07,10,4.80
2008,10,06,07,11,6.10
2008,10,06,07,12,2.90
2008,10,06,07,13,8.00
2008,10,06,07,14,4.00
2008,10,06,07,15,5.80
2008,10,06,07,16,11.60
2008,10,06,07,17,8.50
2008,10,06,07,18,7.80
2008,10,06,07,19,6.80
2008,10,06,07,20,7.90
2008,10,06,07,21,4.80
2008,10,06,07,22,3.40
2008,10,06,07,23,10.30
2008,10,06,07,24,5.70
2008,10,06,07,25,7.40
2008,10,06,07,26,5.70
2008,10,06,07,27,5.30
2008,10,06,07,28,3.40
2008,10,06,07,29,7.80
2008,10,06,07,30,6.50
2008,10,06,07,31,1.60
2008,10,06,07,32,3.40
2008,10,06,07,33,6.20
2008,10,06,07,34,5.60
2008,10,06,07,35,2.70
2008,10,06,07,36,4.50
2008,10,06,07,37,4.50
2008,10,06,07,38,4.00
2008,10,06,07,39,6.60
2008,10,06,07,40,8.10
2008,10,06,07,41,5.30
2008,10,06,07,42,1.90
2008,10,06,07,43,8.70
2008,10,06,07,44,10.10
2008,10,06,07,45,5.30
2008,10,06,07,46,7.30
2008,10,06,07,47,10.50
2008,10,06,07,48,9.10
2008,10,06,07,49,7.60
2008,10,06,07,50,5.10
2008,10,06,07,51,7.30
2008,10,06,07,52,8.00
2008,10,06,07,53,6.40
2008,10,06,07,54,5.90
2008,10,06,07,55,6.70
2008,10,06,07,56,6.20
2008,10,06,07,57,8.50
2008,10,06,07,58,5.20
2008,10,06,07,59,5.90
2008,10,06,08,00,6.20
2008,10,06,08,01,8.90
2008,10,06,08,02,9.20
2008,10,06,08,03,7.20
2008,10,06,08,04,5.60
2008,10,06,08,05,6.70
2008,10,06,08,06,5.60
2008,10,06,08,07,7.50
2008,10,06,08,08,4.80
2008,10,06,08,09,8.60
2008,10,06,08,10,6.30
2008,10,06,08,11,6.00
2008,10,06,08,12,4.20
2008,10,06,08,13,4.10
2008,10,06,08,14,6.40
2008,10,06,08,15,5.90
2008,10,06,08,16,5.90
2008,10,06,08,17,5.00
2008,10,06,08,18,4.00
2008,10,06,08,19,1.80
2008,10,06,08,20,4.70
2008,10,06,08,21,1.30
2008,10,06,08,22,5.30
2008,10,06,08,23,2.40
2008,10,06,08,24,1.40
2008,10,06,08,25,4.20
2008,10,06,08,26,4.10
2008,10,06,08,27,3.50
2008,10,06,08,28,7.70
2008,10,06,08,29,7.20
2008,10,06,08,30,7.20
2008,10,06,08,31,8.30
2008,10,06,08,32,6.60
2008,10,06,08,33,6.50
2008,10,06,08,34,7.20
2008,10,06,08,35,8.60
2008,10,06,08,36,7.60
2008,10,06,08,37,3.60
2008,10,06,08,38,6.10
2008,10,06,08,39,6.20
2008,10,06,08,40,5.80
2008,10,06,08,41,4.80
2008,10,06,08,42,8.30
2008,10,06,08,43,5.80
2008,10,06,08,44,4.10
2008,10,06,08,45,9.90
2008,10,06,08,46,8.30
2008,10,06,08,47,5.40
2008,10,06,08,48,7.00
2008,10,06,08,49,6.10
2008,10,06,08,50,4.50
2008,10,06,08,51,2.60
2008,10,06,08,52,5.90
2008,10,06,08,53,9.90
2008,10,06,08,54,10.10
2008,10,06,08,55,8.80
2008,10,06,08,56,5.60
2008,10,06,08,57,4.30
2008,10,06,08,58,2.90
2008,10,06,08,59,3.70
2008,10,06,09,00,4.20
2008,10,06,09,01,8.30
2008,10,06,09,02,5.70
2008,10,06,09,03,5.10
2008,10,06,09,04,6.60
2008,10,06,09,05,5.70
2008,10,06,09,06,6.50
2008,10,06,09,07,9.50
2008,10,06,09,08,7.30
2008,10,06,09,09,6.60
2008,10,06,09,10,4.70
2008,10,06,09,11,5.10
2008,10,06,09,12,4.50
2008,10,06,09,13,4.70
2008,10,06,09,14,1.50
2008,10,06,09,15,6.00
2008,10,06,09,16,3.70
2008,10,06,09,17,2.40
2008,10,06,09,18,2.80
2008,10,06,09,19,2.30
2008,10,06,09,20,2.50
2008,10,06,09,21,3.60
2008,10,06,09,22,6.60
2008,10,06,09,23,3.00
2008,10,06,09,24,4.20
2008,10,06,09,25,3.90
2008,10,06,09,26,6.30
2008,10,06,09,27,4.10
2008,10,06,09,28,3.20
2008,10,06,09,29,5.10
2008,10,06,09,30,7.10
2008,10,06,09,31,8.90
2008,10,06,09,32,4.50
2008,10,06,09,33,4.70
2008,10,06,09,34,7.00
2008,10,06,09,35,6.30
2008,10,06,09,36,5.20
2008,10,06,09,37,5.30
2008,10,06,09,38,7.80
2008,10,06,09,39,9.70
2008,10,06,09,40,8.90
2008,10,06,09,41,6.50
2008,10,06,09,42,7.90
2008,10,06,09,43,5.90
2008,10,06,09,44,3.60
2008,10,06,09,45,1.60
2008,10,06,09,46,3.40
2008,10,06,09,47,5.10
2008,10,06,09,48,6.90
2008,10,06,09,49,4.60
2008,10,06,09,50,6.30
2008,10,06,09,51,3.20
2008,10,06,09,52,3.10
2008,10,06,09,53,5.10
2008,10,06,09,54,2.10
2008,10,06,09,55,2.70
2008,10,06,09,56,2.80
2008,10,06,09,57,2.80
2008,10,06,09,58,3.40
2008,10,06,09,59,5.50
2008,10,06,10,00,4.80
2008,10,06,10,01,4.70
2008,10,06,10,02,2.20
2008,10,06,10,03,3.50
2008,10,06,10,04,3.00
2008,10,06,10,05,6.80
2008,10,06,10,06,6.40
2008,10,06,10,07,5.30
2008,10,06,10,08,4.80
2008,10,06,10,09,5.00
2008,10,06,10,10,3.20
2008,10,06,10,11,3.60
2008,10,06,10,12,7.10
2008,10,06,10,13,11.10
2008,10,06,10,14,8.10
2008,10,06,10,15,5.10
2008,10,06,10,16,7.60
2008,10,06,10,17,7.30
2008,10,06,10,18,3.20
2008,10,06,10,19,5.30
2008,10,06,10,20,7.10
2008,10,06,10,21,8.40
2008,10,06,10,22,6.40
2008,10,06,10,23,4.50
2008,10,06,10,24,3.10
2008,10,06,10,25,8.60
2008,10,06,10,26,6.90
2008,10,06,10,27,7.20
2008,10,06,10,28,5.80
2008,10,06,10,29,7.50
2008,10,06,10,30,5.20
2008,10,06,10,31,4.40
2008,10,06,10,32,3.60
2008,10,06,10,33,1.50
2008,10,06,10,34,3.20
2008,10,06,10,35,4.70
2008,10,06,10,36,0.20
2008,10,06,10,37,0.90
2008,10,06,10,38,1.30
2008,10,06,10,39,5.80
2008,10,06,10,40,3.90
2008,10,06,10,41,6.00
2008,10,06,10,42,4.10
2008,10,06,10,43,3.50
2008,10,06,10,44,2.40
2008,10,06,10,45,3.60
2008,10,06,10,46,4.50
2008,10,06,10,47,2.10
2008,10,06,10,48,3.70
2008,10,06,10,49,1.60
2008,10,06,10,50,4.30
2008,10,06,10,51,1.50
2008,10,06,10,52,1.20
2008,10,06,10,53,7.40
2008,10,06,10,54,8.20
2008,10,06,10,55,4.30
2008,10,06,10,56,3.50
2008,10,06,10,57,4.10
2008,10,06,10,58,5.10
2008,10,06,10,59,6.40
2008,10,06,11,00,3.00
2008,10,06,11,01,4.10
2008,10,06,11,02,3.10
2008,10,06,11,03,3.70
2008,10,06,11,04,4.90
2008,10,06,11,05,4.70
2008,10,06,11,06,4.60
2008,10,06,11,07,4.10
2008,10,06,11,08,2.10
2008,10,06,11,09,7.20
2008,10,06,11,10,5.60
2008,10,06,11,11,7.50
2008,10,06,11,12,3.70
2008,10,06,11,13,7.70
2008,10,06,11,14,5.20
2008,10,06,11,15,2.00
2008,10,06,11,16,6.50
2008,10,06,11,17,4.10
2008,10,06,11,18,2.80
2008,10,06,11,19,6.40
2008,10,06,11,20,5.70
2008,10,06,11,21,3.30
2008,10,06,11,22,4.40
2008,10,06,11,23,5.50
2008,10,06,11,24,4.40
2008,10,06,11,25,4.60
2008,10,06,11,26,3.90
2008,10,06,11,27,7.80
2008,10,06,11,28,6.50
2008,10,06,11,29,5.90
2008,10,06,11,30,2.90
2008,10,06,11,31,6.10
2008,10,06,11,32,4.30
2008,10,06,11,33,3.80
2008,10,06,11,34,5.20
2008,10,06,11,35,2.90
2008,10,06,11,36,7.00
2008,10,06,11,37,6.80
2008,10,06,11,38,6.90
2008,10,06,11,39,7.90
2008,10,06,11,40,6.70
2008,10,06,11,41,6.60
2008,10,06,11,42,3.10
2008,10,06,11,43,4.60
2008,10,06,11,44,7.00
2008,10,06,11,45,5.60
2008,10,06,11,46,5.70
2008,10,06,11,47,3.20
2008,10,06,11,48,3.10
2008,10,06,11,49,4.80
2008,10,06,11,50,5.80
2008,10,06,11,51,3.60
2008,10,06,11,52,5.80
2008,10,06,11,53,5.70
2008,10,06,11,54,5.80
2008,10,06,11,55,3.90
2008,10,06,11,56,3.90
2008,10,06,11,57,1.90
2008,10,06,11,58,1.50
2008,10,06,11,59,3.40
2008,10,06,12,00,3.60
2008,10,06,12,01,4.80
2008,10,06,12,02,5.30
2008,10,06,12,03,2.50
2008,10,06,12,04,4.00
2008,10,06,12,05,1.00
2008,10,06,12,06,6.00
2008,10,06,12,07,8.00
2008,10,06,12,08,6.00
2008,10,06,12,09,5.10
2008,10,06,12,10,2.40
2008,10,06,12,11,2.70
2008,10,06,12,12,5.60
2008,10,06,12,13,4.60
2008,10,06,12,14,4.30
2008,10,06,12,15,5.10
2008,10,06,12,16,3.90
2008,10,06,12,17,2.50
2008,10,06,12,18,4.20
2008,10,06,12,19,1.80
2008,10,06,12,20,1.00
2008,10,06,12,21,1.80
2008,10,06,12,22,0.40
2008,10,06,12,23,0.00
2008,10,06,12,24,0.10
2008,10,06,12,25,0.50
2008,10,06,12,26,0.40
2008,10,06,12,27,0.20
2008,10,06,12,28,2.90
2008,10,06,12,29,0.10
2008,10,06,12,30,0.00
2008,10,06,12,31,0.00
2008,10,06,12,32,1.90
2008,10,06,12,33,0.90
2008,10,06,12,34,0.10
2008,10,06,12,35,0.90
2008,10,06,12,36,0.30
2008,10,06,12,37,1.00
2008,10,06,12,38,2.90
2008,10,06,12,39,0.30
2008,10,06,12,40,2.10
2008,10,06,12,41,0.10
2008,10,06,12,42,0.00
2008,10,06,12,43,0.00
2008,10,06,12,44,0.00
2008,10,06,12,45,0.00
2008,10,06,12,46,0.00
2008,10,06,12,47,0.00
2008,10,06,12,48,0.00
2008,10,06,12,49,0.00
2008,10,06,12,50,1.60
2008,10,06,12,51,1.50
2008,10,06,12,52,1.00
2008,10,06,12,53,0.90
2008,10,06,12,54,0.60
2008,10,06,12,55,0.70
2008,10,06,12,56,2.90
2008,10,06,12,57,3.80
2008,10,06,12,58,3.90
2008,10,06,12,59,2.60
2008,10,06,13,00,3.10
2008,10,06,13,01,3.30
2008,10,06,13,02,3.60
2008,10,06,13,03,6.00
2008,10,06,13,04,6.30
2008,10,06,13,05,6.80
2008,10,06,13,06,5.50
2008,10,06,13,07,6.50
2008,10,06,13,08,6.30
2008,10,06,13,09,7.60
2008,10,06,13,10,10.60
2008,10,06,13,11,6.50
2008,10,06,13,12,4.90
2008,10,06,13,13,9.60
2008,10,06,13,14,10.10
2008,10,06,13,15,11.50
2008,10,06,13,16,7.10
2008,10,06,13,17,4.50
2008,10,06,13,18,7.90
2008,10,06,13,19,5.00
2008,10,06,13,20,5.00
2008,10,06,13,21,2.00
2008,10,06,13,22,0.30
2008,10,06,13,23,0.00
2008,10,06,13,24,0.50
2008,10,06,13,25,0.00
2008,10,06,13,26,0.00
2008,10,06,13,27,0.00
2008,10,06,13,28,0.00
2008,10,06,13,29,0.00
2008,10,06,13,30,0.10
2008,10,06,13,31,0.00
2008,10,06,13,32,0.00
2008,10,06,13,33,0.00
2008,10,06,13,34,0.00
2008,10,06,13,35,0.00
2008,10,06,13,36,0.60
2008,10,06,13,37,1.80
2008,10,06,13,38,2.50
2008,10,06,13,39,0.00
2008,10,06,13,40,0.00
2008,10,06,13,41,0.10
2008,10,06,13,42,0.00
2008,10,06,13,43,0.00
2008,10,06,13,44,0.00
2008,10,06,13,45,0.00
2008,10,06,13,46,0.30
2008,10,06,13,47,0.60
2008,10,06,13,48,1.10
2008,10,06,13,49,2.50
2008,10,06,13,50,3.50
2008,10,06,13,51,5.10
2008,10,06,13,52,5.60
2008,10,06,13,53,4.30
2008,10,06,13,54,6.40
2008,10,06,13,55,2.00
2008,10,06,13,56,4.10
2008,10,06,13,57,0.20
2008,10,06,13,58,0.10
2008,10,06,13,59,0.10
2008,10,06,14,00,0.90
2008,10,06,14,01,0.00
2008,10,06,14,02,0.00
2008,10,06,14,03,1.40
2008,10,06,14,04,6.70
2008,10,06,14,05,6.40
2008,10,06,14,06,3.10
2008,10,06,14,07,2.40
2008,10,06,14,08,5.40
2008,10,06,14,09,2.20
2008,10,06,14,10,0.20
2008,10,06,14,11,0.30
2008,10,06,14,12,0.00
2008,10,06,14,13,2.50
2008,10,06,14,14,4.40
2008,10,06,14,15,4.80
2008,10,06,14,16,8.10
2008,10,06,14,17,7.40
2008,10,06,14,18,5.40
2008,10,06,14,19,6.20
2008,10,06,14,20,5.20
2008,10,06,14,21,6.40
2008,10,06,14,22,1.90
2008,10,06,14,23,2.80
2008,10,06,14,24,1.30
2008,10,06,14,25,0.10
2008,10,06,14,26,0.60
2008,10,06,14,27,0.50
2008,10,06,14,28,3.80
2008,10,06,14,29,7.10
2008,10,06,14,30,7.70
2008,10,06,14,31,2.60
2008,10,06,14,32,0.30
2008,10,06,14,33,0.90
2008,10,06,14,34,1.70
2008,10,06,14,35,5.30
2008,10,06,14,36,11.10
2008,10,06,14,37,9.90
2008,10,06,14,38,6.90
2008,10,06,14,39,5.60
2008,10,06,14,40,1.50
2008,10,06,14,41,5.20
2008,10,06,14,42,4.10
2008,10,06,14,43,3.80
2008,10,06,14,44,6.40
2008,10,06,14,45,4.40
2008,10,06,14,46,0.80
2008,10,06,14,47,3.10
2008,10,06,14,48,2.50
2008,10,06,14,49,2.20
2008,10,06,14,50,4.20
2008,10,06,14,51,3.50
2008,10,06,14,52,7.20
2008,10,06,14,53,8.10
2008,10,06,14,54,7.40
2008,10,06,14,55,11.10
2008,10,06,14,56,10.30
2008,10,06,14,57,13.30
2008,10,06,14,58,15.50
2008,10,06,14,59,13.80
2008,10,06,15,00,15.40
2008,10,06,15,01,10.00
2008,10,06,15,02,5.40
2008,10,06,15,03,4.30
2008,10,06,15,04,1.80
2008,10,06,15,05,1.90
2008,10,06,15,06,4.10
2008,10,06,15,07,4.70
2008,10,06,15,08,4.50
2008,10,06,15,09,3.40
2008,10,06,15,10,6.30
2008,10,06,15,11,3.00
2008,10,06,15,12,0.90
2008,10,06,15,13,3.20
2008,10,06,15,14,3.80
2008,10,06,15,15,1.30
2008,10,06,15,16,1.50
2008,10,06,15,17,0.80
2008,10,06,15,18,5.30
2008,10,06,15,19,2.80
2008,10,06,15,20,3.10
2008,10,06,15,21,2.90
2008,10,06,15,22,5.20
2008,10,06,15,23,4.40
2008,10,06,15,24,1.80
2008,10,06,15,25,0.00
2008,10,06,15,26,0.10
2008,10,06,15,27,0.80
2008,10,06,15,28,0.20
2008,10,06,15,29,0.90
2008,10,06,15,30,0.50
2008,10,06,15,31,0.80
2008,10,06,15,32,1.20
2008,10,06,15,33,4.60
2008,10,06,15,34,0.70
2008,10,06,15,35,2.70
2008,10,06,15,36,4.30
2008,10,06,15,37,3.20
2008,10,06,15,38,2.20
2008,10,06,15,39,1.50
2008,10,06,15,40,0.40
2008,10,06,15,41,1.80
2008,10,06,15,42,2.00
2008,10,06,15,43,2.90
2008,10,06,15,44,4.90
2008,10,06,15,45,6.80
2008,10,06,15,46,3.40
2008,10,06,15,47,5.40
2008,10,06,15,48,2.70
2008,10,06,15,49,2.50
2008,10,06,15,50,2.70
2008,10,06,15,51,5.10
2008,10,06,15,52,5.00
2008,10,06,15,53,3.60
2008,10,06,15,54,5.70
2008,10,06,15,55,7.20
2008,10,06,15,56,6.40
2008,10,06,15,57,6.40
2008,10,06,15,58,7.70
2008,10,06,15,59,6.00
2008,10,06,16,00,5.80
2008,10,06,16,01,7.30
2008,10,06,16,02,6.50
2008,10,06,16,03,5.30
2008,10,06,16,04,5.40
2008,10,06,16,05,4.80
2008,10,06,16,06,1.60
2008,10,06,16,07,3.90
2008,10,06,16,08,3.90
2008,10,06,16,09,5.50
2008,10,06,16,10,4.00
2008,10,06,16,11,7.20
2008,10,06,16,12,5.90
2008,10,06,16,13,0.30
2008,10,06,16,14,2.60
2008,10,06,16,15,1.00
2008,10,06,16,16,0.20
2008,10,06,16,17,0.10
2008,10,06,16,18,0.10
2008,10,06,16,19,0.90
2008,10,06,16,20,5.30
2008,10,06,16,21,5.20
2008,10,06,16,22,4.70
2008,10,06,16,23,4.50
2008,10,06,16,24,6.20
2008,10,06,16,25,4.90
2008,10,06,16,26,4.60
2008,10,06,16,27,2.90
2008,10,06,16,28,3.30
2008,10,06,16,29,5.40
2008,10,06,16,30,2.90
2008,10,06,16,31,2.90
2008,10,06,16,32,2.00
2008,10,06,16,33,0.20
2008,10,06,16,34,0.40
2008,10,06,16,35,0.40
2008,10,06,16,36,0.80
2008,10,06,16,37,0.20
2008,10,06,16,38,2.30
2008,10,06,16,39,1.50
2008,10,06,16,40,0.20
2008,10,06,16,41,2.80
2008,10,06,16,42,1.90
2008,10,06,16,43,4.90
2008,10,06,16,44,1.80
2008,10,06,16,45,1.20
2008,10,06,16,46,1.00
2008,10,06,16,47,1.40
2008,10,06,16,48,0.60
2008,10,06,16,49,2.40
2008,10,06,16,50,4.80
2008,10,06,16,51,1.80
2008,10,06,16,52,2.50
2008,10,06,16,53,1.60
2008,10,06,16,54,1.60
2008,10,06,16,55,2.20
2008,10,06,16,56,1.20
2008,10,06,16,57,2.90
2008,10,06,16,58,1.80
2008,10,06,16,59,1.80
2008,10,06,17,00,2.90
2008,10,06,17,01,0.10
2008,10,06,17,02,4.90
2008,10,06,17,03,3.90
2008,10,06,17,04,4.70
2008,10,06,17,05,4.70
2008,10,06,17,06,5.60
2008,10,06,17,07,5.10
2008,10,06,17,08,4.30
2008,10,06,17,09,6.00
2008,10,06,17,10,5.10
2008,10,06,17,11,4.30
2008,10,06,17,12,1.30
2008,10,06,17,13,2.90
2008,10,06,17,14,2.00
2008,10,06,17,15,5.50
2008,10,06,17,16,6.50
2008,10,06,17,17,5.90
2008,10,06,17,18,3.60
2008,10,06,17,19,5.40
2008,10,06,17,20,7.10
2008,10,06,17,21,4.70
2008,10,06,17,22,5.90
2008,10,06,17,23,5.70
2008,10,06,17,24,7.10
2008,10,06,17,25,4.50
2008,10,06,17,26,4.60
2008,10,06,17,27,7.00
2008,10,06,17,28,7.30
2008,10,06,17,29,7.00
2008,10,06,17,30,6.40
2008,10,06,17,31,7.30
2008,10,06,17,32,7.50
2008,10,06,17,33,6.90
2008,10,06,17,34,5.40
2008,10,06,17,35,2.40
2008,10,06,17,36,4.20
2008,10,06,17,37,5.40
2008,10,06,17,38,4.60
2008,10,06,17,39,5.40
2008,10,06,17,40,6.00
2008,10,06,17,41,2.40
2008,10,06,17,42,3.30
2008,10,06,17,43,3.10
2008,10,06,17,44,6.40
2008,10,06,17,45,6.90
2008,10,06,17,46,4.00
2008,10,06,17,47,4.60
2008,10,06,17,48,5.80
2008,10,06,17,49,4.40
2008,10,06,17,50,7.60
2008,10,06,17,51,4.40
2008,10,06,17,52,2.90
2008,10,06,17,53,3.80
2008,10,06,17,54,2.70
2008,10,06,17,55,4.60
2008,10,06,17,56,8.10
2008,10,06,17,57,6.50
2008,10,06,17,58,6.10
2008,10,06,17,59,4.20
2008,10,06,18,00,7.20
2008,10,06,18,01,3.70
2008,10,06,18,02,3.80
2008,10,06,18,03,3.50
2008,10,06,18,04,3.20
2008,10,06,18,05,4.40